Year,Month,Day,Hour,Minute,Value (Times are PST for temperature in C)
2014,02,06,00,00,-4.00
2014,02,06,00,01,-4.00
2014,02,06,00,02,-4.00
2014,02,06,00,03,-4.00
2014,02,06,00,04,-3.90
2014,02,06,00,05,-3.90
2014,02,06,00,06,-3.90
2014,02,06,00,07,-3.90
2014,02,06,00,08,-4.00
2014,02,06,00,09,-4.00
2014,02,06,00,10,-4.00
2014,02,06,00,11,-4.00
2014,02,06,00,12,-4.10
2014,02,06,00,13,-4.10
2014,02,06,00,14,-4.00
2014,02,06,00,15,-4.00
2014,02,06,00,16,-4.00
2014,02,06,00,17,-4.00
2014,02,06,00,18,-4.00
2014,02,06,00,19,-4.10
2014,02,06,00,20,-4.10
2014,02,06,00,21,-4.10
2014,02,06,00,22,-4.10
2014,02,06,00,23,-4.10
2014,02,06,00,24,-4.10
2014,02,06,00,25,-4.10
2014,02,06,00,26,-4.10
2014,02,06,00,27,-4.10
2014,02,06,00,28,-4.20
2014,02,06,00,29,-4.10
2014,02,06,00,30,-4.10
2014,02,06,00,31,-4.10
2014,02,06,00,32,-4.10
2014,02,06,00,33,-4.10
2014,02,06,00,34,-4.10
2014,02,06,00,35,-4.10
2014,02,06,00,36,-4.10
2014,02,06,00,37,-4.10
2014,02,06,00,38,-4.10
2014,02,06,00,39,-4.10
2014,02,06,00,40,-4.10
2014,02,06,00,41,-4.10
2014,02,06,00,42,-4.10
2014,02,06,00,43,-4.10
2014,02,06,00,44,-4.10
2014,02,06,00,45,-4.20
2014,02,06,00,46,-4.20
2014,02,06,00,47,-4.20
2014,02,06,00,48,-4.20
2014,02,06,00,49,-4.20
2014,02,06,00,50,-4.20
2014,02,06,00,51,-4.20
2014,02,06,00,52,-4.20
2014,02,06,00,53,-4.30
2014,02,06,00,54,-4.30
2014,02,06,00,55,-4.30
2014,02,06,00,56,-4.30
2014,02,06,00,57,-4.30
2014,02,06,00,58,-4.30
2014,02,06,00,59,-4.30
2014,02,06,01,00,-4.30
2014,02,06,01,01,-4.30
2014,02,06,01,02,-4.30
2014,02,06,01,03,-4.30
2014,02,06,01,04,-4.20
2014,02,06,01,05,-4.20
2014,02,06,01,06,-4.20
2014,02,06,01,07,-4.20
2014,02,06,01,08,-4.20
2014,02,06,01,09,-4.20
2014,02,06,01,10,-4.20
2014,02,06,01,11,-4.30
2014,02,06,01,12,-4.30
2014,02,06,01,13,-4.30
2014,02,06,01,14,-4.30
2014,02,06,01,15,-4.30
2014,02,06,01,16,-4.40
2014,02,06,01,17,-4.40
2014,02,06,01,18,-4.40
2014,02,06,01,19,-4.40
2014,02,06,01,20,-4.40
2014,02,06,01,21,-4.30
2014,02,06,01,22,-4.30
2014,02,06,01,23,-4.30
2014,02,06,01,24,-4.30
2014,02,06,01,25,-4.30
2014,02,06,01,26,-4.30
2014,02,06,01,27,-4.30
2014,02,06,01,28,-4.30
2014,02,06,01,29,-4.30
2014,02,06,01,30,-4.30
2014,02,06,01,31,-4.30
2014,02,06,01,32,-4.30
2014,02,06,01,33,-4.30
2014,02,06,01,34,-4.30
2014,02,06,01,35,-4.30
2014,02,06,01,36,-4.30
2014,02,06,01,37,-4.20
2014,02,06,01,38,-4.20
2014,02,06,01,39,-4.20
2014,02,06,01,40,-4.20
2014,02,06,01,41,-4.20
2014,02,06,01,42,-4.20
2014,02,06,01,43,-4.20
2014,02,06,01,44,-4.30
2014,02,06,01,45,-4.30
2014,02,06,01,46,-4.30
2014,02,06,01,47,-4.40
2014,02,06,01,48,-4.40
2014,02,06,01,49,-4.40
2014,02,06,01,50,-4.40
2014,02,06,01,51,-4.40
2014,02,06,01,52,-4.40
2014,02,06,01,53,-4.40
2014,02,06,01,54,-4.40
2014,02,06,01,55,-4.40
2014,02,06,01,56,-4.40
2014,02,06,01,57,-4.40
2014,02,06,01,58,-4.40
2014,02,06,01,59,-4.40
2014,02,06,02,00,-4.40
2014,02,06,02,01,-4.40
2014,02,06,02,02,-4.40
2014,02,06,02,03,-4.40
2014,02,06,02,04,-4.40
2014,02,06,02,05,-4.40
2014,02,06,02,06,-4.40
2014,02,06,02,07,-4.40
2014,02,06,02,08,-4.40
2014,02,06,02,09,-4.40
2014,02,06,02,10,-4.40
2014,02,06,02,11,-4.40
2014,02,06,02,12,-4.40
2014,02,06,02,13,-4.40
2014,02,06,03,38,-4.70
2014,02,06,03,39,-4.60
2014,02,06,03,40,-4.60
2014,02,06,03,41,-4.60
2014,02,06,03,42,-4.70
2014,02,06,03,43,-4.70
2014,02,06,03,44,-4.70
2014,02,06,03,45,-4.70
2014,02,06,03,46,-4.70
2014,02,06,03,47,-4.70
2014,02,06,03,48,-4.70
2014,02,06,03,49,-4.70
2014,02,06,03,50,-4.70
2014,02,06,03,51,-4.70
2014,02,06,03,52,-4.70
2014,02,06,03,53,-4.80
2014,02,06,03,54,-4.80
2014,02,06,03,55,-4.80
2014,02,06,03,56,-4.80
2014,02,06,03,57,-4.80
2014,02,06,03,58,-4.80
2014,02,06,03,59,-4.80
2014,02,06,04,00,-4.80
2014,02,06,04,01,-4.70
2014,02,06,04,02,-4.70
2014,02,06,04,03,-4.70
2014,02,06,04,04,-4.70
2014,02,06,04,05,-4.70
2014,02,06,04,06,-4.70
2014,02,06,04,07,-4.70
2014,02,06,04,08,-4.70
2014,02,06,04,09,-4.70
2014,02,06,04,10,-4.70
2014,02,06,04,11,-4.70
2014,02,06,04,12,-4.70
2014,02,06,04,13,-4.70
2014,02,06,04,14,-4.80
2014,02,06,04,15,-4.80
2014,02,06,04,16,-4.80
2014,02,06,04,17,-4.80
2014,02,06,04,18,-4.80
2014,02,06,04,19,-4.80
2014,02,06,04,20,-4.80
2014,02,06,04,21,-4.80
2014,02,06,04,22,-4.80
2014,02,06,04,23,-4.80
2014,02,06,04,24,-4.80
2014,02,06,04,25,-4.70
2014,02,06,04,26,-4.80
2014,02,06,04,27,-4.80
2014,02,06,04,28,-4.80
2014,02,06,04,29,-4.80
2014,02,06,04,30,-4.80
2014,02,06,04,31,-4.80
2014,02,06,04,32,-4.80
2014,02,06,04,33,-4.80
2014,02,06,04,34,-4.80
2014,02,06,04,35,-4.80
2014,02,06,04,36,-4.70
2014,02,06,04,37,-4.70
2014,02,06,04,38,-4.70
2014,02,06,04,39,-4.80
2014,02,06,04,40,-4.80
2014,02,06,04,41,-4.70
2014,02,06,04,42,-4.70
2014,02,06,04,43,-4.70
2014,02,06,04,44,-4.70
2014,02,06,04,45,-4.70
2014,02,06,04,46,-4.70
2014,02,06,04,47,-4.70
2014,02,06,04,48,-4.70
2014,02,06,04,49,-4.70
2014,02,06,04,50,-4.60
2014,02,06,04,51,-4.60
2014,02,06,04,52,-4.60
2014,02,06,04,53,-4.60
2014,02,06,04,54,-4.60
2014,02,06,04,55,-4.60
2014,02,06,04,56,-4.60
2014,02,06,04,57,-4.60
2014,02,06,04,58,-4.60
2014,02,06,04,59,-4.60
2014,02,06,05,00,-4.60
2014,02,06,05,01,-4.60
2014,02,06,05,02,-4.60
2014,02,06,05,03,-4.60
2014,02,06,05,04,-4.70
2014,02,06,05,05,-4.70
2014,02,06,05,06,-4.70
2014,02,06,05,07,-4.70
2014,02,06,05,08,-4.70
2014,02,06,05,09,-4.70
2014,02,06,05,10,-4.70
2014,02,06,05,11,-4.70
2014,02,06,05,12,-4.70
2014,02,06,05,13,-4.70
2014,02,06,05,14,-4.70
2014,02,06,05,15,-4.70
2014,02,06,05,16,-4.70
2014,02,06,05,17,-4.70
2014,02,06,05,18,-4.70
2014,02,06,05,19,-4.70
2014,02,06,05,20,-4.70
2014,02,06,05,21,-4.70
2014,02,06,05,22,-4.70
2014,02,06,05,23,-4.70
2014,02,06,05,24,-4.60
2014,02,06,05,25,-4.60
2014,02,06,05,26,-4.60
2014,02,06,05,27,-4.60
2014,02,06,05,28,-4.70
2014,02,06,05,29,-4.70
2014,02,06,05,30,-4.70
2014,02,06,05,31,-4.70
2014,02,06,05,32,-4.70
2014,02,06,05,33,-4.80
2014,02,06,05,34,-4.80
2014,02,06,05,35,-4.80
2014,02,06,05,36,-4.80
2014,02,06,05,37,-4.80
2014,02,06,05,38,-4.80
2014,02,06,05,39,-4.80
2014,02,06,05,40,-4.80
2014,02,06,05,41,-4.80
2014,02,06,05,42,-4.80
2014,02,06,05,43,-4.80
2014,02,06,05,44,-4.80
2014,02,06,05,45,-4.80
2014,02,06,05,46,-4.80
2014,02,06,05,47,-4.80
2014,02,06,05,48,-4.80
2014,02,06,05,49,-4.80
2014,02,06,05,50,-4.80
2014,02,06,05,51,-4.70
2014,02,06,05,52,-4.70
2014,02,06,05,53,-4.70
2014,02,06,05,54,-4.70
2014,02,06,05,55,-4.70
2014,02,06,05,56,-4.70
2014,02,06,05,57,-4.70
2014,02,06,05,58,-4.70
2014,02,06,05,59,-4.70
2014,02,06,06,00,-4.70
2014,02,06,06,01,-4.70
2014,02,06,06,02,-4.70
2014,02,06,06,03,-4.70
2014,02,06,06,04,-4.70
2014,02,06,06,05,-4.60
2014,02,06,06,06,-4.70
2014,02,06,06,07,-4.70
2014,02,06,06,08,-4.70
2014,02,06,06,09,-4.70
2014,02,06,06,10,-4.60
2014,02,06,06,11,-4.60
2014,02,06,06,12,-4.60
2014,02,06,06,13,-4.60
2014,02,06,06,14,-4.60
2014,02,06,06,15,-4.60
2014,02,06,06,16,-4.60
2014,02,06,06,17,-4.60
2014,02,06,06,18,-4.60
2014,02,06,06,19,-4.60
2014,02,06,06,20,-4.60
2014,02,06,06,21,-4.60
2014,02,06,06,22,-4.60
2014,02,06,06,23,-4.60
2014,02,06,06,24,-4.60
2014,02,06,06,25,-4.60
2014,02,06,06,26,-4.60
2014,02,06,06,27,-4.60
2014,02,06,06,28,-4.70
2014,02,06,06,29,-4.60
2014,02,06,06,30,-4.60
2014,02,06,06,31,-4.60
2014,02,06,06,32,-4.70
2014,02,06,06,33,-4.60
2014,02,06,06,34,-4.70
2014,02,06,06,35,-4.70
2014,02,06,06,36,-4.60
2014,02,06,06,37,-4.60
2014,02,06,06,38,-4.60
2014,02,06,06,39,-4.60
2014,02,06,06,40,-4.70
2014,02,06,06,41,-4.70
2014,02,06,06,42,-4.70
2014,02,06,06,43,-4.60
2014,02,06,06,44,-4.60
2014,02,06,06,45,-4.60
2014,02,06,06,46,-4.70
2014,02,06,06,47,-4.70
2014,02,06,06,48,-4.70
2014,02,06,06,49,-4.70
2014,02,06,06,50,-4.70
2014,02,06,06,51,-4.70
2014,02,06,06,52,-4.70
2014,02,06,06,53,-4.60
2014,02,06,06,54,-4.60
2014,02,06,06,55,-4.70
2014,02,06,06,56,-4.70
2014,02,06,06,57,-4.60
2014,02,06,06,58,-4.60
2014,02,06,06,59,-4.60
2014,02,06,07,00,-4.60
2014,02,06,07,01,-4.60
2014,02,06,07,02,-4.60
2014,02,06,07,03,-4.60
2014,02,06,07,04,-4.60
2014,02,06,07,05,-4.60
2014,02,06,07,06,-4.60
2014,02,06,07,07,-4.60
2014,02,06,07,08,-4.60
2014,02,06,07,09,-4.60
2014,02,06,07,10,-4.60
2014,02,06,07,11,-4.60
2014,02,06,07,12,-4.60
2014,02,06,07,13,-4.60
2014,02,06,07,14,-4.60
2014,02,06,07,15,-4.60
2014,02,06,07,16,-4.60
2014,02,06,07,17,-4.60
2014,02,06,07,18,-4.60
2014,02,06,07,19,-4.60
2014,02,06,07,20,-4.60
2014,02,06,07,21,-4.60
2014,02,06,07,22,-4.60
2014,02,06,07,23,-4.60
2014,02,06,07,24,-4.50
2014,02,06,07,25,-4.50
2014,02,06,07,26,-4.50
2014,02,06,07,27,-4.50
2014,02,06,07,28,-4.50
2014,02,06,07,29,-4.50
2014,02,06,07,30,-4.50
2014,02,06,07,31,-4.50
2014,02,06,07,32,-4.60
2014,02,06,07,33,-4.60
2014,02,06,07,34,-4.60
2014,02,06,07,35,-4.60
2014,02,06,07,36,-4.60
2014,02,06,07,37,-4.60
2014,02,06,07,38,-4.60
2014,02,06,07,39,-4.60
2014,02,06,07,40,-4.60
2014,02,06,07,41,-4.60
2014,02,06,07,42,-4.60
2014,02,06,07,43,-4.60
2014,02,06,07,44,-4.60
2014,02,06,07,45,-4.60
2014,02,06,07,46,-4.60
2014,02,06,07,47,-4.50
2014,02,06,07,48,-4.50
2014,02,06,07,49,-4.50
2014,02,06,07,50,-4.50
2014,02,06,07,51,-4.50
2014,02,06,07,52,-4.50
2014,02,06,07,53,-4.40
2014,02,06,07,54,-4.40
2014,02,06,07,55,-4.40
2014,02,06,07,56,-4.40
2014,02,06,07,57,-4.40
2014,02,06,07,58,-4.40
2014,02,06,07,59,-4.40
2014,02,06,08,00,-4.40
2014,02,06,08,01,-4.40
2014,02,06,08,02,-4.40
2014,02,06,08,03,-4.40
2014,02,06,08,04,-4.30
2014,02,06,08,05,-4.30
2014,02,06,08,06,-4.30
2014,02,06,08,07,-4.30
2014,02,06,08,08,-4.30
2014,02,06,08,09,-4.30
2014,02,06,08,10,-4.30
2014,02,06,08,11,-4.30
2014,02,06,08,12,-4.30
2014,02,06,08,13,-4.30
2014,02,06,08,14,-4.20
2014,02,06,08,15,-4.20
2014,02,06,08,16,-4.30
2014,02,06,08,17,-4.30
2014,02,06,08,18,-4.30
2014,02,06,08,19,-4.30
2014,02,06,08,20,-4.20
2014,02,06,08,21,-4.20
2014,02,06,08,22,-4.20
2014,02,06,08,23,-4.20
2014,02,06,08,24,-4.20
2014,02,06,08,25,-4.20
2014,02,06,08,26,-4.20
2014,02,06,08,27,-4.20
2014,02,06,08,28,-4.20
2014,02,06,08,29,-4.10
2014,02,06,08,30,-4.10
2014,02,06,08,31,-4.10
2014,02,06,08,32,-4.00
2014,02,06,08,33,-4.00
2014,02,06,08,34,-3.90
2014,02,06,08,35,-3.90
2014,02,06,08,36,-3.80
2014,02,06,08,37,-3.80
2014,02,06,08,38,-3.80
2014,02,06,08,39,-3.80
2014,02,06,08,40,-3.70
2014,02,06,08,41,-3.70
2014,02,06,08,42,-3.70
2014,02,06,08,43,-3.70
2014,02,06,08,44,-3.60
2014,02,06,08,45,-3.60
2014,02,06,08,46,-3.60
2014,02,06,08,47,-3.60
2014,02,06,08,48,-3.60
2014,02,06,08,49,-3.60
2014,02,06,08,50,-3.60
2014,02,06,08,51,-3.50
2014,02,06,08,52,-3.50
2014,02,06,08,53,-3.50
2014,02,06,08,54,-3.50
2014,02,06,08,55,-3.40
2014,02,06,08,56,-3.40
2014,02,06,08,57,-3.40
2014,02,06,08,58,-3.40
2014,02,06,08,59,-3.40
2014,02,06,09,00,-3.40
2014,02,06,09,01,-3.50
2014,02,06,09,02,-3.50
2014,02,06,09,03,-3.40
2014,02,06,09,04,-3.40
2014,02,06,09,05,-3.40
2014,02,06,09,06,-3.40
2014,02,06,09,07,-3.40
2014,02,06,09,08,-3.40
2014,02,06,09,09,-3.40
2014,02,06,09,10,-3.40
2014,02,06,09,11,-3.40
2014,02,06,09,12,-3.30
2014,02,06,09,13,-3.30
2014,02,06,09,14,-3.20
2014,02,06,09,15,-3.20
2014,02,06,09,16,-3.20
2014,02,06,09,17,-3.10
2014,02,06,09,18,-3.10
2014,02,06,09,19,-3.10
2014,02,06,09,20,-3.10
2014,02,06,09,21,-3.10
2014,02,06,09,22,-3.10
2014,02,06,09,23,-3.10
2014,02,06,09,24,-3.10
2014,02,06,09,25,-3.10
2014,02,06,09,26,-3.10
2014,02,06,09,27,-3.10
2014,02,06,09,28,-3.10
2014,02,06,09,29,-3.10
2014,02,06,09,30,-3.10
2014,02,06,09,31,-3.10
2014,02,06,09,32,-3.10
2014,02,06,09,33,-3.10
2014,02,06,09,34,-3.10
2014,02,06,09,35,-3.10
2014,02,06,09,36,-3.10
2014,02,06,09,37,-3.00
2014,02,06,09,38,-3.00
2014,02,06,09,39,-3.00
2014,02,06,09,40,-3.00
2014,02,06,09,41,-3.10
2014,02,06,09,42,-3.10
2014,02,06,09,43,-3.00
2014,02,06,09,44,-3.00
2014,02,06,09,45,-2.90
2014,02,06,09,46,-3.00
2014,02,06,09,47,-2.90
2014,02,06,09,48,-2.90
2014,02,06,09,49,-2.90
2014,02,06,09,50,-2.80
2014,02,06,09,51,-2.80
2014,02,06,09,52,-2.80
2014,02,06,09,53,-2.70
2014,02,06,09,54,-2.70
2014,02,06,09,55,-2.70
2014,02,06,09,56,-2.70
2014,02,06,09,57,-2.70
2014,02,06,09,58,-2.70
2014,02,06,09,59,-2.60
2014,02,06,10,00,-2.70
2014,02,06,10,01,-2.70
2014,02,06,10,02,-2.70
2014,02,06,10,03,-2.70
2014,02,06,10,04,-2.70
2014,02,06,10,05,-2.60
2014,02,06,10,06,-2.70
2014,02,06,10,07,-2.70
2014,02,06,10,08,-2.70
2014,02,06,10,09,-2.70
2014,02,06,10,10,-2.60
2014,02,06,10,11,-2.50
2014,02,06,10,12,-2.40
2014,02,06,10,13,-2.40
2014,02,06,10,14,-2.30
2014,02,06,10,15,-2.30
2014,02,06,10,16,-2.20
2014,02,06,10,17,-2.10
2014,02,06,10,18,-2.10
2014,02,06,10,19,-2.20
2014,02,06,10,20,-2.20
2014,02,06,10,21,-2.20
2014,02,06,10,22,-2.10
2014,02,06,10,23,-2.00
2014,02,06,10,24,-2.00
2014,02,06,10,25,-2.00
2014,02,06,10,26,-2.10
2014,02,06,10,27,-2.00
2014,02,06,10,28,-2.10
2014,02,06,10,29,-2.10
2014,02,06,10,30,-2.20
2014,02,06,10,31,-2.20
2014,02,06,10,32,-2.10
2014,02,06,10,33,-2.10
2014,02,06,10,34,-2.20
2014,02,06,10,35,-2.20
2014,02,06,10,36,-2.20
2014,02,06,10,37,-2.10
2014,02,06,10,38,-2.10
2014,02,06,10,39,-2.00
2014,02,06,10,40,-1.90
2014,02,06,10,41,-1.90
2014,02,06,10,42,-1.80
2014,02,06,10,43,-1.80
2014,02,06,10,44,-1.80
2014,02,06,10,45,-1.90
2014,02,06,10,46,-1.90
2014,02,06,10,47,-1.90
2014,02,06,10,48,-1.90
2014,02,06,10,49,-1.80
2014,02,06,10,50,-1.90
2014,02,06,10,51,-1.90
2014,02,06,10,52,-1.90
2014,02,06,10,53,-1.90
2014,02,06,10,54,-1.90
2014,02,06,10,55,-2.00
2014,02,06,10,56,-2.00
2014,02,06,10,57,-2.00
2014,02,06,10,58,-2.10
2014,02,06,10,59,-2.10
2014,02,06,11,00,-2.00
2014,02,06,11,01,-1.90
2014,02,06,11,02,-1.90
2014,02,06,11,03,-2.00
2014,02,06,11,04,-2.00
2014,02,06,11,05,-2.10
2014,02,06,11,06,-2.10
2014,02,06,11,07,-2.10
2014,02,06,11,08,-2.00
2014,02,06,11,09,-2.00
2014,02,06,11,10,-2.00
2014,02,06,11,11,-2.00
2014,02,06,11,12,-1.90
2014,02,06,11,13,-1.80
2014,02,06,11,14,-1.90
2014,02,06,11,15,-1.90
2014,02,06,11,16,-1.90
2014,02,06,11,17,-1.90
2014,02,06,11,18,-1.90
2014,02,06,11,19,-1.90
2014,02,06,11,20,-1.80
2014,02,06,11,21,-1.80
2014,02,06,11,22,-1.80
2014,02,06,11,23,-1.80
2014,02,06,11,24,-1.70
2014,02,06,11,25,-1.70
2014,02,06,11,26,-1.60
2014,02,06,11,27,-1.60
2014,02,06,11,28,-1.60
2014,02,06,11,29,-1.60
2014,02,06,11,30,-1.50
2014,02,06,11,31,-1.50
2014,02,06,11,32,-1.50
2014,02,06,11,33,-1.70
2014,02,06,11,34,-2.00
2014,02,06,11,35,-2.20
2014,02,06,11,36,-2.20
2014,02,06,11,37,-2.20
2014,02,06,11,38,-2.20
2014,02,06,11,39,-2.10
2014,02,06,11,40,-2.10
2014,02,06,11,41,-2.10
2014,02,06,11,42,-2.20
2014,02,06,11,43,-2.10
2014,02,06,11,44,-2.00
2014,02,06,11,45,-1.90
2014,02,06,11,46,-1.80
2014,02,06,11,47,-1.70
2014,02,06,11,48,-1.60
2014,02,06,11,49,-1.50
2014,02,06,11,50,-1.40
2014,02,06,11,51,-1.50
2014,02,06,11,52,-1.50
2014,02,06,11,53,-1.50
2014,02,06,11,54,-1.50
2014,02,06,11,55,-1.50
2014,02,06,11,56,-1.60
2014,02,06,11,57,-1.60
2014,02,06,11,58,-1.50
2014,02,06,11,59,-1.40
2014,02,06,12,00,-1.40
2014,02,06,12,01,-1.50
2014,02,06,12,02,-1.60
2014,02,06,12,03,-1.60
2014,02,06,12,04,-1.60
2014,02,06,12,05,-1.50
2014,02,06,12,06,-1.50
2014,02,06,12,07,-1.60
2014,02,06,12,08,-1.60
2014,02,06,12,09,-1.60
2014,02,06,12,10,-1.70
2014,02,06,12,11,-1.70
2014,02,06,12,12,-1.80
2014,02,06,12,13,-1.80
2014,02,06,12,14,-1.90
2014,02,06,12,15,-1.80
2014,02,06,12,16,-1.80
2014,02,06,12,17,-1.70
2014,02,06,12,18,-1.70
2014,02,06,12,19,-1.60
2014,02,06,12,20,-1.60
2014,02,06,12,21,-1.50
2014,02,06,12,22,-1.40
2014,02,06,12,23,-1.40
2014,02,06,12,24,-1.40
2014,02,06,12,25,-1.40
2014,02,06,12,26,-1.40
2014,02,06,12,27,-1.40
2014,02,06,12,28,-1.50
2014,02,06,12,29,-1.40
2014,02,06,12,30,-1.50
2014,02,06,12,31,-1.70
2014,02,06,12,32,-1.80
2014,02,06,12,33,-1.80
2014,02,06,12,34,-1.80
2014,02,06,12,35,-1.90
2014,02,06,12,36,-1.80
2014,02,06,12,37,-1.80
2014,02,06,12,38,-1.60
2014,02,06,12,39,-1.40
2014,02,06,12,40,-1.30
2014,02,06,12,41,-1.30
2014,02,06,12,42,-1.20
2014,02,06,12,43,-1.20
2014,02,06,12,44,-1.30
2014,02,06,12,45,-1.30
2014,02,06,12,46,-1.30
2014,02,06,12,47,-1.30
2014,02,06,12,48,-1.30
2014,02,06,12,49,-1.30
2014,02,06,12,50,-1.30
2014,02,06,12,51,-1.30
2014,02,06,12,52,-1.40
2014,02,06,12,53,-1.40
2014,02,06,12,54,-1.50
2014,02,06,12,55,-1.60
2014,02,06,12,56,-1.60
2014,02,06,12,57,-1.60
2014,02,06,12,58,-1.60
2014,02,06,12,59,-1.60
2014,02,06,13,00,-1.60
2014,02,06,13,01,-1.60
2014,02,06,13,02,-1.60
2014,02,06,13,03,-1.70
2014,02,06,13,04,-1.60
2014,02,06,13,05,-1.60
2014,02,06,13,06,-1.50
2014,02,06,13,07,-1.40
2014,02,06,13,08,-1.40
2014,02,06,13,09,-1.30
2014,02,06,13,10,-1.30
2014,02,06,13,11,-1.30
2014,02,06,13,12,-1.30
2014,02,06,13,13,-1.40
2014,02,06,13,14,-1.50
2014,02,06,13,15,-1.60
2014,02,06,13,16,-1.60
2014,02,06,13,17,-1.60
2014,02,06,13,18,-1.60
2014,02,06,13,19,-1.50
2014,02,06,13,20,-1.50
2014,02,06,13,21,-1.50
2014,02,06,13,22,-1.50
2014,02,06,13,23,-1.60
2014,02,06,13,24,-1.60
2014,02,06,13,25,-1.70
2014,02,06,13,26,-1.70
2014,02,06,13,27,-1.80
2014,02,06,13,28,-1.80
2014,02,06,13,29,-1.80
2014,02,06,13,30,-1.70
2014,02,06,13,31,-1.70
2014,02,06,13,32,-1.60
2014,02,06,13,33,-1.50
2014,02,06,13,34,-1.60
2014,02,06,13,35,-1.60
2014,02,06,13,36,-1.50
2014,02,06,13,37,-1.40
2014,02,06,13,38,-1.40
2014,02,06,13,39,-1.40
2014,02,06,13,40,-1.40
2014,02,06,13,41,-1.40
2014,02,06,13,42,-1.40
2014,02,06,13,43,-1.40
2014,02,06,13,44,-1.40
2014,02,06,13,45,-1.40
2014,02,06,13,46,-1.40
2014,02,06,13,47,-1.40
2014,02,06,13,48,-1.40
2014,02,06,13,49,-1.30
2014,02,06,13,50,-1.30
2014,02,06,13,51,-1.20
2014,02,06,13,52,-1.20
2014,02,06,13,53,-1.20
2014,02,06,13,54,-1.20
2014,02,06,13,55,-1.20
2014,02,06,13,56,-1.20
2014,02,06,13,57,-1.20
2014,02,06,13,58,-1.30
2014,02,06,13,59,-1.30
2014,02,06,14,00,-1.30
2014,02,06,14,01,-1.40
2014,02,06,14,02,-1.40
2014,02,06,14,03,-1.40
2014,02,06,14,04,-1.40
2014,02,06,14,05,-1.40
2014,02,06,14,06,-1.40
2014,02,06,14,07,-1.40
2014,02,06,14,08,-1.40
2014,02,06,14,09,-1.30
2014,02,06,14,10,-1.30
2014,02,06,14,11,-1.30
2014,02,06,14,12,-1.30
2014,02,06,14,13,-1.30
2014,02,06,14,14,-1.40
2014,02,06,14,15,-1.40
2014,02,06,14,16,-1.40
2014,02,06,14,17,-1.40
2014,02,06,14,18,-1.40
2014,02,06,14,19,-1.40
2014,02,06,14,20,-1.40
2014,02,06,14,21,-1.40
2014,02,06,14,22,-1.40
2014,02,06,14,23,-1.40
2014,02,06,14,24,-1.40
2014,02,06,14,25,-1.40
2014,02,06,14,26,-1.30
2014,02,06,14,27,-1.30
2014,02,06,14,28,-1.40
2014,02,06,14,29,-1.40
2014,02,06,14,30,-1.30
2014,02,06,14,31,-1.30
2014,02,06,14,32,-1.30
2014,02,06,14,33,-1.30
2014,02,06,14,34,-1.30
2014,02,06,14,35,-1.30
2014,02,06,14,36,-1.30
2014,02,06,14,37,-1.30
2014,02,06,14,38,-1.30
2014,02,06,14,39,-1.30
2014,02,06,14,40,-1.20
2014,02,06,14,41,-1.10
2014,02,06,14,42,-1.00
2014,02,06,14,43,-1.00
2014,02,06,14,44,-1.00
2014,02,06,14,45,-1.00
2014,02,06,14,46,-1.00
2014,02,06,14,47,-0.90
2014,02,06,14,48,-0.90
2014,02,06,14,49,-0.90
2014,02,06,14,50,-0.90
2014,02,06,14,51,-0.90
2014,02,06,14,52,-0.90
2014,02,06,14,53,-0.90
2014,02,06,14,54,-0.90
2014,02,06,14,55,-1.00
2014,02,06,14,56,-1.00
2014,02,06,14,57,-1.00
2014,02,06,14,58,-1.00
2014,02,06,14,59,-0.90
2014,02,06,15,00,-0.90
2014,02,06,15,01,-0.90
2014,02,06,15,02,-0.90
2014,02,06,15,03,-0.90
2014,02,06,15,04,-1.00
2014,02,06,15,05,-1.00
2014,02,06,15,06,-1.10
2014,02,06,15,07,-1.10
2014,02,06,15,08,-1.10
2014,02,06,15,09,-1.10
2014,02,06,15,10,-1.10
2014,02,06,15,11,-1.00
2014,02,06,15,12,-1.00
2014,02,06,15,13,-1.00
2014,02,06,15,14,-1.10
2014,02,06,15,15,-1.10
2014,02,06,15,16,-1.00
2014,02,06,15,17,-0.90
2014,02,06,15,18,-0.90
2014,02,06,15,19,-0.80
2014,02,06,15,20,-0.80
2014,02,06,15,21,-0.80
2014,02,06,15,22,-0.80
2014,02,06,15,23,-0.80
2014,02,06,15,24,-0.80
2014,02,06,15,25,-0.80
2014,02,06,15,26,-0.80
2014,02,06,15,27,-0.80
2014,02,06,15,28,-0.80
2014,02,06,15,29,-0.80
2014,02,06,15,30,-0.80
2014,02,06,15,31,-0.80
2014,02,06,15,32,-0.80
2014,02,06,15,33,-0.80
2014,02,06,15,34,-0.80
2014,02,06,15,35,-0.80
2014,02,06,15,36,-0.80
2014,02,06,15,37,-0.80
2014,02,06,15,38,-0.80
2014,02,06,15,39,-0.80
2014,02,06,15,40,-0.80
2014,02,06,15,41,-0.80
2014,02,06,15,42,-0.80
2014,02,06,15,43,-0.80
2014,02,06,15,44,-0.80
2014,02,06,15,45,-0.80
2014,02,06,15,46,-0.80
2014,02,06,15,47,-0.80
2014,02,06,15,48,-0.80
2014,02,06,15,49,-0.80
2014,02,06,15,50,-0.80
2014,02,06,15,51,-0.80
2014,02,06,15,52,-0.80
2014,02,06,15,53,-0.80
2014,02,06,15,54,-0.80
2014,02,06,15,55,-0.80
2014,02,06,15,56,-0.80
2014,02,06,15,57,-0.80
2014,02,06,15,58,-0.80
2014,02,06,15,59,-0.80
2014,02,06,16,00,-0.80
2014,02,06,16,01,-0.80
2014,02,06,16,02,-0.80
2014,02,06,16,03,-0.80
2014,02,06,16,04,-0.80
2014,02,06,16,05,-0.80
2014,02,06,16,06,-0.80
2014,02,06,16,07,-0.80
2014,02,06,16,08,-0.80
2014,02,06,16,09,-0.80
2014,02,06,16,10,-0.80
2014,02,06,16,11,-0.80
2014,02,06,16,12,-0.70
2014,02,06,16,13,-0.70
2014,02,06,16,14,-0.70
2014,02,06,16,15,-0.70
2014,02,06,16,16,-0.70
2014,02,06,16,17,-0.70
2014,02,06,16,18,-0.70
2014,02,06,16,19,-0.70
2014,02,06,16,20,-0.70
2014,02,06,16,21,-0.70
2014,02,06,16,22,-0.70
2014,02,06,16,23,-0.60
2014,02,06,16,24,-0.60
2014,02,06,16,25,-0.60
2014,02,06,16,26,-0.60
2014,02,06,16,27,-0.60
2014,02,06,16,28,-0.50
2014,02,06,16,29,-0.50
2014,02,06,16,30,-0.50
2014,02,06,16,31,-0.50
2014,02,06,16,32,-0.50
2014,02,06,16,33,-0.40
2014,02,06,16,34,-0.40
2014,02,06,16,35,-0.40
2014,02,06,16,36,-0.50
2014,02,06,16,37,-0.50
2014,02,06,16,38,-0.50
2014,02,06,16,39,-0.50
2014,02,06,16,40,-0.50
2014,02,06,16,41,-0.50
2014,02,06,16,42,-0.40
2014,02,06,16,43,-0.40
2014,02,06,16,44,-0.40
2014,02,06,16,45,-0.40
2014,02,06,16,46,-0.40
2014,02,06,16,47,-0.40
2014,02,06,16,48,-0.40
2014,02,06,16,49,-0.40
2014,02,06,16,50,-0.40
2014,02,06,16,51,-0.40
2014,02,06,16,52,-0.40
2014,02,06,16,53,-0.40
2014,02,06,16,54,-0.40
2014,02,06,16,55,-0.40
2014,02,06,16,56,-0.40
2014,02,06,16,57,-0.40
2014,02,06,16,58,-0.40
2014,02,06,16,59,-0.40
2014,02,06,17,00,-0.40
2014,02,06,17,01,-0.40
2014,02,06,17,02,-0.40
2014,02,06,17,03,-0.50
2014,02,06,17,04,-0.50
2014,02,06,17,05,-0.50
2014,02,06,17,06,-0.50
2014,02,06,17,07,-0.50
2014,02,06,17,08,-0.60
2014,02,06,17,09,-0.60
2014,02,06,17,10,-0.60
2014,02,06,17,11,-0.60
2014,02,06,17,12,-0.60
2014,02,06,17,13,-0.60
2014,02,06,17,14,-0.60
2014,02,06,17,15,-0.60
2014,02,06,17,16,-0.60
2014,02,06,17,17,-0.60
2014,02,06,17,18,-0.60
2014,02,06,17,19,-0.60
2014,02,06,17,20,-0.60
2014,02,06,17,21,-0.60
2014,02,06,17,22,-0.60
2014,02,06,17,23,-0.70
2014,02,06,17,24,-0.60
2014,02,06,17,25,-0.60
2014,02,06,17,26,-0.70
2014,02,06,17,27,-0.70
2014,02,06,17,28,-0.70
2014,02,06,17,29,-0.70
2014,02,06,17,30,-0.70
2014,02,06,17,31,-0.70
2014,02,06,17,32,-0.70
2014,02,06,17,33,-0.70
2014,02,06,17,34,-0.70
2014,02,06,17,35,-0.70
2014,02,06,17,36,-0.70
2014,02,06,17,37,-0.70
2014,02,06,17,38,-0.70
2014,02,06,17,39,-0.70
2014,02,06,17,40,-0.80
2014,02,06,17,41,-0.80
2014,02,06,17,42,-0.80
2014,02,06,17,43,-0.80
2014,02,06,17,44,-0.80
2014,02,06,17,45,-0.80
2014,02,06,17,46,-0.80
2014,02,06,17,47,-0.80
2014,02,06,17,48,-0.80
2014,02,06,17,49,-0.80
2014,02,06,17,50,-0.80
2014,02,06,17,51,-0.80
2014,02,06,17,52,-0.80
2014,02,06,17,53,-0.80
2014,02,06,17,54,-0.80
2014,02,06,17,55,-0.80
2014,02,06,17,56,-0.80
2014,02,06,17,57,-0.80
2014,02,06,17,58,-0.80
2014,02,06,17,59,-0.80
2014,02,06,18,00,-0.80
2014,02,06,18,01,-0.80
2014,02,06,18,02,-0.80
2014,02,06,18,03,-0.80
2014,02,06,18,04,-0.80
2014,02,06,18,05,-0.80
2014,02,06,18,06,-0.80
2014,02,06,18,07,-0.80
2014,02,06,18,08,-0.80
2014,02,06,18,09,-0.70
2014,02,06,18,10,-0.70
2014,02,06,18,11,-0.70
2014,02,06,18,12,-0.70
2014,02,06,18,13,-0.70
2014,02,06,18,14,-0.70
2014,02,06,18,15,-0.70
2014,02,06,18,16,-0.70
2014,02,06,18,17,-0.70
2014,02,06,18,18,-0.70
2014,02,06,18,19,-0.70
2014,02,06,18,20,-0.70
2014,02,06,18,21,-0.70
2014,02,06,18,22,-0.70
2014,02,06,18,23,-0.70
2014,02,06,18,24,-0.70
2014,02,06,18,25,-0.70
2014,02,06,18,26,-0.80
2014,02,06,18,27,-0.80
2014,02,06,18,28,-0.80
2014,02,06,18,29,-0.80
2014,02,06,18,30,-0.70
2014,02,06,18,31,-0.70
2014,02,06,18,32,-0.70
2014,02,06,18,33,-0.70
2014,02,06,18,34,-0.70
2014,02,06,18,35,-0.70
2014,02,06,18,36,-0.70
2014,02,06,18,37,-0.70
2014,02,06,18,38,-0.70
2014,02,06,18,39,-0.70
2014,02,06,18,40,-0.70
2014,02,06,18,41,-0.70
2014,02,06,18,42,-0.70
2014,02,06,18,43,-0.70